RH
74 67 66 62 58 47 64 69 75 49 42 30 24 25 26 24 23 19 24 28 35 43 54 54 58 62 65 67 88 96 97 98 96 95 94 94 93 93 94 89 85 88 91 91
82 57 56 57 50 54 43 43 44 44 43 28 25 23 25 25 24 23 29 28 32 41 56 50 63 65 65 71 74 91 97 97 96 96 96 96 96 97 97 97 93 93 95 90
94 54 58 82 83 74 65 59 62 64 42 48 49 50 54 52 49 29 25 28 31 45 58 54 72 77 82 89 94 94 95 96 98 97 97 96 95 96 97 98 97 96 95 95
97 72 100 90 67 58 64 54 50 47 49 56 53 48 48 44 43 38 28 45 30 48 65 78 87 90 95 96 97 97 99 98 96 98 98 97 97 96 96 96 97 96 95 93
99 90 88 78 76 81 77 71 58 61 59 57 56 59 52 37 43 45 45 51 51 59 81 91 94 95 93 95 96 97 94 96 98 98 99 99 99 98 97 98 98 97 96 96
91 100 87 90 77 53 58 88 57 64 72 72 66 88 57 38 38 42 41 43 57 86 94 94 92 92 92 94 94 97 98 96 97 96 98 99 99 99 99 99 99 99 99 98
79 95 90 74 75 51 81 75 72 71 71 74 84 69 53 47 48 43 42 58 81 88 88 81 84 88 93 90 89 84 83 89 93 94 96 96 96 97 98 99 99 99 99 99
68 86 87 74 72 93 87 87 77 79 83 83 79 73 65 58 56 50 46 81 83 83 83 76 78 81 80 81 76 75 80 77 76 77 78 81 84 86 88 91 95 97 96 97
97 87 86 82 96 92 95 95 90 93 87 92 90 82 74 67 62 56 89 94 82 87 90 83 79 71 80 75 70 72 78 85 80 77 78 77 78 78 77 77 84 89 93 97
95 89 92 92 91 89 93 95 94 93 93 90 84 79 74 65 71 87 99 94 80 83 88 92 84 84 87 74 68 73 83 89 86 88 86 81 83 84 86 85 83 84 88 89
92 87 81 72 89 95 93 92 93 92 95 95 91 96 93 94 98 98 99 96 83 83 86 87 82 86 84 82 80 86 85 90 85 81 83 86 86 86 88 87 86 91 96 94
96 95 96 94 94 94 94 94 95 95 92 94 94 95 91 94 96 96 97 96 94 90 88 86 82 84 84 84 85 88 88 88 88 84 83 82 85 89 84 80 84 86 82 86
96 95 96 94 88 92 95 95 94 94 94 94 94 95 94 95 96 96 96 95 96 96 95 92 86 88 90 91 85 86 89 90 92 89 88 89 89 90 92 88 84 82 83 85
84 91 89 85 94 94 95 94 94 90 93 94 95 93 95 94 93 94 95 96 96 95 92 91 91 92 90 90 92 92 93 93 91 91 89 89 88 86 84 88 90 88 82 82
86 88 91 85 80 82 85 90 91 93 93 93 93 95 94 94 94 95 95 95 94 92 88 77 65 66 60 59 66 70 70 77 82 86 86 87 90 91 92 91 86 92 92 84
85 84 80 84 82 81 80 84 88 92 92 87 85 91 93 91 93 93 90 86 90 89 84 82 80 63 62 61 62 65 68 73 76 81 80 80 83 85 88 91 93 94 88 91
88 89 85 83 81 77 77 72 73 77 80 81 80 72 76 84 84 85 88 84 77 77 75 73 76 71 62 62 64 66 66 67 71 74 78 79 81 81 82 82 84 86 90 72
75 73 72 70 71 76 73 70 67 71 72 72 67 67 72 76 83 82 78 78 74 74 69 69 70 74 69 64 66 65 66 67 68 75 76 77 80 84 87 85 87 90 90 81
71 73 72 64 69 73 74 74 71 67 71 70 70 74 69 69 70 73 74 76 86 82 77 65 73 77 75 66 70 70 69 70 70 75 75 76 80 80 87 88 87 88 86 80
73 69 71 67 67 70 77 73 75 70 75 69 74 69 80 77 72 71 71 79 80 83 66 67 74 78 78 67 71 72 74 78 80 81 79 83 83 86 87 81 82 88 88 81
78 77 78 78 75 76 72 76 84 76 71 80 74 75 76 81 84 79 81 87 77 88 64 66 70 92 68 69 73 75 80 83 85 93 91 89 88 92 90 87 88 85 86 87
86 90 87 81 81 83 78 82 83 72 74 75 69 77 79 74 86 82 77 87 71 78 71 72 74 88 70 73 79 78 82 86 88 92 96 94 93 97 95 95 93 87 89 93
92 89 83 81 86 89 88 85 84 77 80 81 74 80 75 77 89 86 84 68 63 66 72 77 66 80 74 78 83 87 91 92 90 93 95 97 92 96 98 96 93 93 96 97
90 80 81 78 90 90 92 80 84 73 81 81 76 75 77 85 86 78 75 65 66 64 69 68 65 76 73 83 89 95 92 94 93 96 95 82 95 98 98 96 97 94 94 93
87 88 92 93 92 80 81 76 78 78 91 86 79 69 70 70 90 77 81 72 69 69 76 76 70 75 79 88 91 96 92 92 92 90 96 96 97 99 98 96 96 95 95 96
90 87 82 80 79 75 76 77 80 81 75 81 78 66 68 83 76 72 72 67 71 70 85 88 90 77 90 92 92 93 94 93 92 94 87 95 96 97 97 97 97 97 96 96
86 79 84 82 84 75 77 75 79 84 79 86 82 70 82 69 72 69 68 71 73 77 82 87 94 86 83 89 93 96 95 95 89 90 97 97 98 98 97 97 97 96 96 96
Wind_Speed
1 5 4 6 9 9 5 5 5 12 18 18 20 18 14 12 12 15 14 14 16 14 12 7 7 5 5 4 3 6 7 8 8 10 12 11 11 10 10 10 12 12 11 10
4 7 5 10 9 10 12 13 13 18 27 11 12 15 14 12 11 9 10 14 14 13 12 12 8 6 5 4 6 3 6 6 6 6 8 10 10 10 9 10 10 11 13 12
5 2 3 3 14 9 10 8 6 9 15 13 14 15 15 20 19 17 12 14 14 11 10 11 6 7 5 6 5 1 2 5 5 6 6 5 7 8 9 10 9 11 11 11
4 3 4 10 17 10 19 17 5 12 16 10 15 20 20 15 19 16 9 13 16 12 8 6 5 6 4 5 5 5 7 7 2 5 4 4 5 7 7 7 10 9 10 10
1 1 8 9 16 12 11 16 9 16 22 18 18 22 24 13 5 10 14 13 18 9 5 5 6 5 4 6 5 6 7 5 6 5 5 4 5 5 4 5 6 8 8 10
4 1 2 7 19 17 11 10 18 26 26 24 20 15 21 14 13 16 20 16 18 6 2 5 5 4 3 5 5 6 5 5 4 6 6 6 5 4 1 2 2 2 3 3
6 3 4 19 22 18 2 11 31 29 29 29 25 21 30 19 25 18 18 25 8 5 5 5 3 3 5 5 6 4 5 7 9 6 7 6 6 5 4 5 7 6 6 5
6 5 6 24 14 12 12 22 25 27 27 33 31 31 31 21 21 18 17 16 3 5 10 8 5 4 6 7 5 7 8 9 9 8 7 6 9 7 8 7 7 6 5 4
5 3 9 16 11 14 16 20 21 24 30 29 24 22 21 16 15 12 14 6 6 6 11 11 8 5 9 6 8 9 10 10 10 10 10 9 9 8 7 8 7 6 4 4
5 2 15 16 15 17 19 18 20 23 23 25 10 6 4 7 7 7 5 7 10 11 10 15 7 9 8 10 10 10 11 11 10 11 11 11 9 8 8 7 6 6 6 5
4 5 15 11 19 20 22 21 21 23 22 23 23 21 12 9 9 8 5 6 11 13 12 13 10 11 10 11 11 11 10 9 11 10 10 11 11 9 9 10 8 6 5 5
4 12 8 14 20 22 21 22 21 21 24 25 24 22 22 20 16 14 11 9 13 13 15 12 12 13 13 11 11 9 10 8 8 7 6 7 7 8 20 18 19 19 18 11
6 15 11 12 14 21 19 21 21 21 22 22 23 21 23 17 19 20 14 15 15 13 13 13 15 15 14 13 12 11 10 8 7 8 6 6 6 5 6 9 18 20 19 19
10 13 6 13 16 18 18 19 19 18 20 21 21 21 19 19 20 18 16 15 14 14 17 16 17 17 14 13 13 12 10 17 7 6 6 6 6 6 6 6 7 7 15 15
13 7 7 9 14 16 16 18 19 19 19 21 20 19 18 18 18 17 16 15 16 16 18 17 17 15 13 12 12 12 10 8 7 7 7 8 6 6 6 6 6 5 5 9
11 7 11 11 13 15 17 18 17 17 16 16 17 18 16 14 13 13 14 15 15 15 15 14 15 14 12 13 12 10 10 18 13 7 6 6 6 5 5 5 5 5 5 5
16 19 17 15 14 14 14 13 14 14 14 14 15 14 14 12 12 13 12 12 13 14 14 14 12 11 13 12 11 8 7 8 13 7 6 6 5 5 4 5 5 5 5 8
7 9 9 10 11 12 13 13 13 13 14 14 12 12 12 13 13 12 11 10 9 10 11 12 13 12 12 12 10 7 6 6 6 5 4 5 5 4 4 5 5 4 3 6
7 9 10 11 9 9 10 10 11 12 12 12 11 11 10 10 9 8 7 8 9 11 11 11 18 13 11 15 11 6 6 6 6 5 5 7 5 5 4 4 4 4 4 4
9 9 9 11 10 10 9 9 8 8 8 8 8 8 8 8 8 7 8 9 10 7 9 11 10 8 7 12 13 6 6 6 5 5 5 5 4 4 4 7 5 3 3 4
9 10 11 9 9 8 8 7 5 8 9 8 8 7 7 7 8 7 8 7 11 10 12 14 10 6 6 8 8 5 5 4 4 4 4 4 4 4 4 4 4 3 2 3
6 8 9 8 8 8 8 7 6 7 6 6 7 6 6 8 6 5 5 6 6 15 7 6 6 9 9 11 4 5 4 4 3 3 3 3 3 3 3 4 4 4 4 3
7 7 7 8 7 7 7 6 6 7 7 7 7 6 6 5 5 4 6 8 6 10 5 5 12 13 14 5 4 4 4 4 4 4 4 3 3 3 2 3 3 4 4 4
6 7 8 9 6 6 6 5 5 6 5 6 5 6 5 5 4 3 4 10 13 11 6 9 10 12 12 4 4 3 4 4 4 3 3 8 3 3 3 3 4 4 4 6
7 6 7 7 6 6 5 5 5 5 6 5 5 5 5 4 3 4 3 5 11 10 4 11 12 12 5 4 4 4 5 5 5 4 4 4 3 2 3 4 4 5 5 3
6 6 6 8 6 5 4 4 4 4 4 4 4 5 5 3 3 3 4 7 4 9 4 4 3 4 2 4 2 3 4 5 5 5 7 5 4 4 5 5 4 5 5 5
6 10 5 5 3 4 4 6 5 4 4 4 6 7 2 4 4 5 7 3 4 4 4 4 1 4 4 2 3 3 4 4 7 5 3 4 4 5 5 5 5 5 6 6
Wind_Direction
209 249 238 284 297 292 272 237 251 297 287 292 306 314 314 310 315 323 324 327 332 341 341 334 349 3 8 344 274 201 192 182 200 182 176 178 190 189 178 177 179 176 189 189
284 260 255 285 322 309 265 258 254 267 279 263 289 314 309 315 309 304 314 317 315 320 337 333 328 333 341 347 318 235 191 204 176 181 164 166 176 181 176 177 180 185 201 196
270 189 273 13 354 332 337 324 340 274 286 6 330 327 340 325 313 311 311 300 297 304 317 316 325 316 340 327 330 10 182 181 162 158 160 171 162 165 182 181 178 190 200 204
221 174 229 124 29 346 327 287 330 292 304 15 338 319 312 293 271 274 304 301 296 294 311 318 334 326 354 4 37 41 49 28 75 142 148 160 173 187 183 174 183 187 194 198
64 123 126 45 5 334 332 304 46 344 323 323 316 312 295 284 315 313 321 308 286 275 270 334 330 350 34 45 38 46 61 28 13 71 96 154 177 195 196 171 182 193 191 194
5 30 64 12 342 323 294 264 351 332 318 315 321 301 279 278 292 307 306 301 281 190 104 50 348 2 74 68 60 56 54 63 41 52 72 68 65 79 39 136 157 135 113 161
1 339 123 15 349 327 30 322 321 314 306 299 289 257 278 281 287 288 291 298 237 138 114 96 30 13 58 59 50 32 60 67 61 57 72 72 73 58 55 64 79 73 70 50
351 351 350 355 343 1 304 303 305 301 295 289 274 271 258 258 259 274 283 294 201 115 96 60 66 94 64 56 38 52 54 64 59 60 58 62 75 65 63 64 67 64 74 60
10 351 326 330 319 313 311 308 309 309 304 293 277 258 240 225 235 254 278 221 127 110 102 75 54 73 75 39 58 69 66 56 59 61 60 52 62 63 63 59 69 69 66 51
342 330 336 317 331 332 329 322 323 325 329 346 320 25 129 196 217 246 196 171 112 105 74 82 59 63 67 68 65 68 70 62 61 65 60 55 53 49 55 47 56 55 49 39
277 322 323 341 341 334 336 338 344 350 352 6 29 36 48 58 64 66 41 84 88 86 79 75 67 61 56 63 68 68 68 71 75 70 66 68 62 57 61 55 55 64 49 41
306 324 309 314 330 335 342 347 352 358 3 11 30 35 43 44 35 36 27 43 70 73 74 68 64 53 55 52 66 70 69 63 67 70 73 81 79 73 60 67 61 60 61 55
321 313 307 316 323 343 344 346 358 3 10 16 21 32 39 42 41 35 31 39 48 55 66 61 59 51 38 45 52 59 62 57 59 58 55 58 56 60 70 42 48 55 51 52
335 322 324 348 347 341 343 348 358 8 14 18 19 25 32 38 34 25 25 32 42 49 56 53 53 48 41 43 57 57 58 60 55 54 52 51 56 64 60 58 51 37 39 49
346 336 313 327 342 347 351 354 4 11 9 13 14 19 23 27 31 26 19 22 33 38 47 46 50 46 39 46 50 56 60 50 43 43 50 55 45 47 46 49 43 32 22 29
326 337 353 357 354 353 358 2 5 4 8 11 12 12 13 26 29 26 28 27 32 33 36 41 45 42 41 43 45 45 47 59 56 42 42 44 43 52 52 49 45 37 40 51
349 353 351 352 352 353 358 359 0 1 360 11 11 9 13 19 32 28 25 32 34 35 30 34 35 37 45 42 44 42 42 44 53 45 46 42 41 44 44 48 47 45 29 48
326 326 329 333 344 346 351 358 358 357 0 359 5 10 13 15 20 25 17 13 33 38 30 28 32 31 43 45 38 40 41 39 41 40 41 56 48 35 36 47 41 35 20 38
339 333 335 342 345 343 345 348 352 348 351 358 5 4 6 10 12 19 7 16 16 34 21 17 26 28 32 38 41 33 36 36 36 34 41 48 43 36 28 37 36 29 33 43
334 339 334 339 337 342 336 340 333 339 342 352 353 1 4 3 2 6 6 21 14 19 16 14 9 11 40 31 39 27 26 26 27 21 26 27 35 27 27 31 30 29 32 34
325 329 327 329 331 323 328 328 326 338 335 343 348 354 344 345 350 357 12 10 1 11 17 5 358 354 43 45 35 24 18 14 20 18 16 15 8 1 7 5 4 0 2 11
314 315 314 318 322 320 320 316 322 329 332 342 340 345 342 347 342 355 358 1 347 359 13 352 329 35 43 37 22 15 11 8 2 357 357 358 355 10 356 353 352 346 355 321
301 303 303 312 305 297 301 308 319 324 329 331 332 340 340 329 327 5 356 343 345 334 21 335 342 16 38 28 13 5 359 353 346 341 337 325 16 339 317 320 320 334 317 302
292 298 305 305 302 306 303 304 304 312 301 306 312 323 324 329 323 346 324 342 335 350 360 332 335 359 26 4 355 354 350 341 331 313 332 343 313 314 320 312 311 313 306 308
284 286 285 291 294 293 289 296 307 306 305 302 308 312 307 307 309 314 332 323 342 343 358 335 345 5 2 353 339 353 341 334 313 342 328 312 321 312 306 309 299 296 295 309
288 289 283 277 271 280 288 289 292 286 296 312 303 305 298 291 297 333 316 332 338 334 319 316 302 357 329 323 346 326 318 317 326 315 316 324 320 315 304 296 288 286 285 282
279 294 291 276 254 267 273 280 301 286 298 288 283 295 305 300 284 319 332 307 306 306 303 291 289 325 324 313 315 293 295 295 312 305 322 301 289 282 283 283 281 280 279 276